Погода в Монастырище

Украина / Черкасская область     48°59′41″N   29°48′40″E
темп.,
°C
ветер,
м/с
пор.,
м/с
влажн.,
%
обл.,
%
осадки,
мм/ч
давл.,
гПа
погр.,
м
22 мая, вс
вс2200:00+14сз7136830 0.0 1008788
03:00+12сз614684 0.0 1008757
06:00+10з613780 0.0 1007612
09:00+13зсз9136582 0.0 10061443
12:00+15зсз101360100 0.6 10051729
15:00+14сз9146668 1.1 10051662
18:00+14ссз8116065 0.3 10051552
21:00+11ссз6117256 0.3 1007826
23 мая, пн
пн2300:00+9сз5983100 0.0 1008675
03:00+9сз4892100 0.3 1008557
06:00+9ссз4797100 0.8 1008497
09:00+10с2485100 1.8 1009286
12:00+14с126395 0.6 10101053
15:00+14ссз336474 1.9 10101085
18:00+15ссв3458100 0.6 10101251
21:00+10св1279100 0.9 101110
24 мая, вт
вт2400:00+9вюв008111 0.0 101310
03:00+7ссв00845 0.0 101310
06:00+7з22865 0.0 101418
09:00+13с23650 0.0 1014485
12:00+17ссв334414 0.0 10152007
15:00+18с32405 0.0 10142078
18:00+18ссв22427 0.0 10151905
21:00+12в45661 0.0 101757
25 мая, ср
ср2500:00+10вюв356524 0.0 101862
03:00+9ююв47685 0.0 1019104
06:00+9ю367544 0.0 101996
09:00+16ю46625 0.0 1019513
12:00+20ю564320 0.0 10181667
15:00+21ю6643100 0.0 10172088
18:00+19ююз4758100 0.0 1017766
21:00+16ююв41167100 0.0 1016279
26 мая, чт
чт2600:00+14ю714608 0.0 1016500
03:00+14ю7145885 0.0 1015542
06:00+12ююз61177100 0.4 1014409
09:00+13зюз61189100 2.4 1014446
12:00+19сз89605 0.0 10151247
15:00+21сз8114747 0.0 10152317
18:00+19сз7115494 0.0 10161661
21:00+13зсз35754 0.0 101764